| time (UTC) | temp C | wind direction | speed KPH | gust KPH | rain 1hr cm | rain 24hr cm | rain mn cm | humidity % | barometer mb |
| 20260507013224 | 10 | 348 | 6.4 | 12.9 | 0.00 | 3.10 | 0.00 | 92 | 1011.7 |
| 20260507012738 | 10 | 5 | 6.4 | 12.9 | 0.00 | 3.10 | 0.00 | 92 | 1011.8 |
| 20260507012224 | 10 | 5 | 4.8 | 8.0 | 0.00 | 3.10 | 0.00 | 92 | 1011.7 |
| 20260507011735 | 10 | 5 | 4.8 | 11.3 | 0.00 | 3.10 | 0.00 | 92 | 1011.7 |
| 20260507011227 | 10 | 22 | 6.4 | 11.3 | 0.00 | 3.10 | 0.00 | 92 | 1011.7 |
| 20260507010735 | 10 | 355 | 3.2 | 9.7 | 0.00 | 3.10 | 0.00 | 92 | 1011.7 |
| 20260507010249 | 10 | 29 | 4.8 | 9.7 | 0.00 | 3.10 | 0.00 | 92 | 1011.6 |
| 20260507005801 | 10 | 22 | 4.8 | 9.7 | 0.00 | 3.12 | 0.00 | 92 | 1011.7 |
| 20260507005231 | 10 | 16 | 3.2 | 8.0 | 0.00 | 3.12 | 0.00 | 93 | 1011.6 |
| 20260507004734 | 10 | 14 | 0.0 | 6.4 | 0.00 | 3.12 | 0.00 | 93 | 1011.5 |
| 20260507004227 | 10 | 9 | 1.6 | 6.4 | 0.00 | 3.12 | 0.00 | 93 | 1011.5 |
| 20260507003801 | 10 | 336 | 3.2 | 4.8 | 0.00 | 3.12 | 0.00 | 93 | 1011.3 |
| 20260507003230 | 10 | 331 | 1.6 | 4.8 | 0.00 | 3.12 | 0.00 | 93 | 1011.4 |
| 20260507002727 | 10 | 331 | 1.6 | 4.8 | 0.00 | 3.12 | 0.00 | 93 | 1011.4 |
| 20260507002221 | 10 | 355 | 3.2 | 6.4 | 0.00 | 3.12 | 0.00 | 93 | 1011.3 |
| 20260507001734 | 10 | 360 | 3.2 | 6.4 | 0.00 | 3.12 | 0.00 | 93 | 1011.3 |
| 20260507001247 | 10 | 16 | 4.8 | 6.4 | 0.00 | 3.12 | 0.00 | 94 | 1011.3 |
| 20260507000757 | 10 | 36 | 4.8 | 9.7 | 0.00 | 3.12 | 0.00 | 94 | 1011.4 |
| 20260507000221 | 10 | 355 | 4.8 | 9.7 | 0.00 | 3.12 | 0.00 | 94 | 1011.4 |
| 20260506235734 | 10 | 332 | 4.8 | 8.0 | 0.00 | 3.12 | 0.00 | 94 | 1011.5 |
| 20260506235241 | 10 | 360 | 4.8 | 12.9 | 0.00 | 3.12 | 0.00 | 94 | 1011.4 |
| 20260506234724 | 10 | 9 | 6.4 | 12.9 | 0.00 | 3.12 | 0.00 | 95 | 1011.4 |
| 20260506234235 | 10 | 11 | 4.8 | 14.5 | 0.00 | 3.12 | 0.00 | 95 | 1011.4 |
| 20260506233729 | 10 | 26 | 6.4 | 14.5 | 0.00 | 3.12 | 0.00 | 95 | 1011.5 |
| 20260506233233 | 10 | 334 | 6.4 | 16.1 | 0.00 | 3.12 | 0.00 | 96 | 1011.4 |
| 20260506232726 | 10 | 360 | 8.0 | 16.1 | 0.00 | 3.12 | 0.00 | 96 | 1011.5 |
| 20260506232231 | 10 | 340 | 8.0 | 16.1 | 0.00 | 3.12 | 0.00 | 96 | 1011.4 |
| 20260506231729 | 10 | 355 | 6.4 | 16.1 | 0.00 | 3.12 | 0.00 | 96 | 1011.4 |
| 20260506231222 | 10 | 355 | 8.0 | 19.3 | 0.00 | 3.12 | 0.00 | 96 | 1011.4 |
| 20260506230732 | 10 | 355 | 9.7 | 19.3 | 0.00 | 3.12 | 0.00 | 96 | 1011.3 |
| 20260506230246 | 10 | 5 | 9.7 | 17.7 | 0.00 | 3.12 | 0.00 | 96 | 1011.4 |
| 20260506225731 | 10 | 355 | 6.4 | 14.5 | 0.00 | 3.12 | 0.00 | 96 | 1011.4 |
| 20260506225225 | 10 | 329 | 4.8 | 12.9 | 0.00 | 3.12 | 0.00 | 96 | 1011.3 |
| 20260506224739 | 10 | 13 | 6.4 | 11.3 | 0.00 | 3.12 | 0.00 | 96 | 1011.4 |
| 20260506224224 | 10 | 360 | 4.8 | 12.9 | 0.00 | 3.12 | 0.00 | 96 | 1011.2 |
| 20260506223737 | 10 | 333 | 4.8 | 12.9 | 0.00 | 3.12 | 0.00 | 96 | 1011.1 |
| 20260506223227 | 10 | 355 | 8.0 | 12.9 | 0.00 | 3.12 | 0.00 | 96 | 1011.1 |
| 20260506222737 | 10 | 355 | 6.4 | 14.5 | 0.00 | 3.12 | 0.00 | 96 | 1011.1 |
| 20260506222238 | 10 | 5 | 8.0 | 14.5 | 0.00 | 3.12 | 0.00 | 96 | 1011.1 |
| 20260506221732 | 10 | 10 | 6.4 | 12.9 | 0.00 | 3.12 | 0.00 | 96 | 1011.1 |
| 20260506221238 | 10 | 9 | 6.4 | 12.9 | 0.00 | 3.12 | 0.00 | 97 | 1011.1 |
| 20260506220727 | 10 | 5 | 4.8 | 12.9 | 0.00 | 3.12 | 0.00 | 96 | 1011.1 |
| 20260506220221 | 10 | 5 | 6.4 | 12.9 | 0.00 | 3.12 | 0.00 | 96 | 1011.2 |
| 20260506215754 | 10 | 360 | 6.4 | 14.5 | 0.00 | 3.12 | 6.27 | 97 | 1011.1 |
| 20260506215241 | 10 | 360 | 9.7 | 14.5 | 0.00 | 3.12 | 6.27 | 97 | 1011.1 |
| 20260506214747 | 10 | 19 | 6.4 | 14.5 | 0.00 | 3.12 | 6.27 | 97 | 1011.1 |
| 20260506214238 | 10 | 360 | 6.4 | 14.5 | 0.00 | 3.12 | 6.27 | 97 | 1011.2 |
| 20260506213742 | 10 | 360 | 6.4 | 12.9 | 0.00 | 3.12 | 6.27 | 97 | 1011.1 |
| 20260506213235 | 10 | 355 | 6.4 | 12.9 | 0.00 | 3.12 | 6.27 | 97 | 1011.2 |
| 20260506212748 | 10 | 319 | 6.4 | 9.7 | 0.00 | 3.12 | 6.27 | 97 | 1011.1 |
| 20260506212246 | 10 | 333 | 4.8 | 9.7 | 0.00 | 3.12 | 6.27 | 97 | 1011.1 |
| 20260506211739 | 10 | 351 | 4.8 | 9.7 | 0.00 | 3.12 | 6.27 | 97 | 1011.0 |
| 20260506211313 | 10 | 348 | 6.4 | 9.7 | 0.00 | 3.12 | 6.27 | 97 | 1011.0 |
| 20260506210740 | 10 | 360 | 6.4 | 9.7 | 0.00 | 3.12 | 6.27 | 97 | 1011.0 |
| 20260506210249 | 10 | 342 | 3.2 | 8.0 | 0.00 | 3.12 | 6.27 | 97 | 1010.9 |
| 20260506205741 | 10 | 331 | 6.4 | 8.0 | 0.00 | 3.15 | 6.27 | 96 | 1010.9 |
| 20260506205239 | 10 | 343 | 4.8 | 8.0 | 0.00 | 3.15 | 6.27 | 96 | 1010.8 |
| 20260506204724 | 10 | 335 | 3.2 | 8.0 | 0.00 | 3.15 | 6.27 | 96 | 1010.9 |
| 20260506204239 | 10 | 306 | 3.2 | 9.7 | 0.00 | 3.15 | 6.27 | 96 | 1010.9 |
| 20260506203743 | 10 | 355 | 4.8 | 9.7 | 0.00 | 3.15 | 6.27 | 96 | 1010.8 |
| 20260506203236 | 10 | 309 | 4.8 | 8.0 | 0.00 | 3.15 | 6.27 | 96 | 1010.9 |
| 20260506202751 | 10 | 5 | 3.2 | 8.0 | 0.00 | 3.15 | 6.27 | 96 | 1010.8 |
| 20260506202251 | 10 | 342 | 4.8 | 8.0 | 0.10 | 3.15 | 6.27 | 96 | 1010.8 |
| 20260506201728 | 10 | 17 | 3.2 | 8.0 | 0.10 | 3.15 | 6.27 | 96 | 1010.8 |
| 20260506201239 | 10 | 22 | 4.8 | 8.0 | 0.10 | 3.15 | 6.27 | 96 | 1010.9 |
| 20260506200748 | 10 | 36 | 1.6 | 8.0 | 0.10 | 3.15 | 6.27 | 96 | 1010.8 |
| 20260506200241 | 10 | 57 | 4.8 | 8.0 | 0.10 | 3.15 | 6.27 | 96 | 1010.8 |
| 20260506195724 | 10 | 319 | 1.6 | 4.8 | 0.10 | 3.17 | 6.27 | 96 | 1010.7 |
| 20260506195231 | 10 | 350 | 3.2 | 4.8 | 0.10 | 3.17 | 6.27 | 96 | 1010.6 |
| 20260506194740 | 10 | 30 | 0.0 | 6.4 | 0.10 | 3.17 | 6.27 | 96 | 1010.5 |
| 20260506194233 | 10 | 44 | 3.2 | 6.4 | 0.10 | 3.17 | 6.27 | 96 | 1010.4 |
| 20260506193744 | 10 | 319 | 1.6 | 12.9 | 0.20 | 3.17 | 6.27 | 96 | 1010.2 |
| 20260506193249 | 10 | 321 | 4.8 | 12.9 | 0.30 | 3.17 | 6.27 | 96 | 1010.1 |
| 20260506192733 | 10 | 304 | 3.2 | 9.7 | 0.51 | 3.17 | 6.27 | 96 | 1010.1 |
| 20260506192242 | 10 | 275 | 4.8 | 9.7 | 0.61 | 3.15 | 6.25 | 96 | 1009.9 |
| 20260506191739 | 10 | 5 | 4.8 | 9.7 | 1.09 | 3.15 | 6.25 | 96 | 1009.8 |
| 20260506191229 | 10 | 10 | 3.2 | 16.1 | 2.21 | 3.15 | 6.25 | 96 | 1009.8 |
| 20260506190733 | 10 | 62 | 3.2 | 16.1 | 2.69 | 3.15 | 6.25 | 96 | 1009.6 |
| 20260506190222 | 10 | 36 | 6.4 | 17.7 | 2.79 | 3.15 | 6.25 | 95 | 1009.5 |
| 20260506185732 | 10 | 355 | 9.7 | 19.3 | 2.90 | 3.17 | 6.25 | 95 | 1009.2 |
| 20260506185243 | 10 | 348 | 12.9 | 24.1 | 2.90 | 3.17 | 6.25 | 95 | 1009.2 |
| 20260506184726 | 11 | 5 | 9.7 | 24.1 | 3.00 | 3.17 | 6.25 | 95 | 1009.1 |
| 20260506184234 | 11 | 50 | 14.5 | 22.5 | 3.00 | 3.17 | 6.25 | 96 | 1009.0 |
| 20260506183743 | 11 | 45 | 12.9 | 22.5 | 2.90 | 3.15 | 6.25 | 96 | 1009.5 |
| 20260506183252 | 11 | 54 | 14.5 | 22.5 | 2.79 | 3.15 | 6.22 | 96 | 1009.6 |
| 20260506182731 | 11 | 36 | 6.4 | 9.7 | 2.59 | 3.12 | 6.17 | 96 | 1010.3 |
| 20260506182242 | 11 | 293 | 3.2 | 14.5 | 2.31 | 3.10 | 6.12 | 96 | 1010.4 |
| 20260506181724 | 11 | 229 | 9.7 | 16.1 | 1.91 | 3.05 | 6.05 | 96 | 1010.3 |
| 20260506181226 | 11 | 237 | 11.3 | 17.7 | 0.71 | 2.95 | 5.79 | 96 | 1009.9 |
| 20260506180722 | 11 | 243 | 8.0 | 14.5 | 0.30 | 2.90 | 5.71 | 96 | 1009.8 |
| 20260506180229 | 11 | 257 | 4.8 | 6.4 | 0.20 | 2.90 | 5.69 | 96 | 1009.4 |
| 20260506175745 | 11 | 330 | 0.0 | 6.4 | 0.10 | 2.95 | 5.69 | 96 | 1009.0 |
| 20260506175305 | 11 | 302 | 3.2 | 6.4 | 0.10 | 2.95 | 5.69 | 96 | 1008.9 |
| 20260506174722 | 11 | 313 | 3.2 | 6.4 | 0.00 | 2.92 | 5.66 | 96 | 1008.7 |
| 20260506174245 | 11 | 287 | 3.2 | 4.8 | 0.00 | 2.92 | 5.66 | 96 | 1008.6 |
| 20260506173731 | 11 | 322 | 1.6 | 8.0 | 0.00 | 2.92 | 5.66 | 96 | 1008.5 |
| 20260506173242 | 11 | 324 | 4.8 | 8.0 | 0.00 | 2.92 | 5.66 | 96 | 1008.4 |
| 20260506172741 | 11 | 323 | 3.2 | 4.8 | 0.00 | 2.92 | 5.66 | 96 | 1008.3 |
| 20260506172221 | 11 | 346 | 1.6 | 4.8 | 0.00 | 2.92 | 5.66 | 96 | 1008.3 |
| 20260506171809 | 11 | 333 | 0.0 | 3.2 | 0.00 | 2.92 | 5.66 | 96 | 1008.3 |
| 20260506171239 | 11 | 40 | 0.0 | 4.8 | 0.00 | 2.92 | 5.66 | 96 | 1008.2 |
| 20260506170720 | 11 | 42 | 1.6 | 11.3 | 0.00 | 2.92 | 5.66 | 96 | 1008.2 |
| 20260506170233 | 11 | 66 | 3.2 | 11.3 | 0.00 | 2.92 | 5.66 | 96 | 1008.1 |
| 20260506165746 | 11 | 46 | 4.8 | 9.7 | 0.00 | 2.97 | 5.66 | 96 | 1008.2 |
| 20260506165238 | 11 | 79 | 4.8 | 12.9 | 0.00 | 2.97 | 5.66 | 96 | 1008.1 |
| 20260506164723 | 11 | 44 | 6.4 | 16.1 | 0.00 | 2.97 | 5.66 | 96 | 1008.0 |
| 20260506164237 | 11 | 32 | 6.4 | 16.1 | 0.00 | 2.97 | 5.66 | 96 | 1008.0 |
| 20260506163750 | 11 | 41 | 4.8 | 16.1 | 0.00 | 2.97 | 5.66 | 96 | 1007.9 |
| 20260506163240 | 11 | 5 | 8.0 | 16.1 | 0.00 | 2.97 | 5.66 | 96 | 1008.0 |
| 20260506162752 | 12 | 355 | 8.0 | 16.1 | 0.00 | 2.97 | 5.66 | 96 | 1007.7 |
| 20260506162247 | 12 | 327 | 6.4 | 14.5 | 0.00 | 2.97 | 5.66 | 96 | 1007.7 |
| 20260506161745 | 12 | 17 | 8.0 | 16.1 | 0.00 | 2.97 | 5.66 | 97 | 1007.6 |
| 20260506161237 | 12 | 51 | 8.0 | 17.7 | 0.00 | 2.97 | 5.66 | 96 | 1007.3 |
| 20260506160727 | 12 | 340 | 11.3 | 17.7 | 0.00 | 2.97 | 5.66 | 97 | 1007.0 |
| 20260506160301 | 12 | 355 | 9.7 | 17.7 | 0.00 | 2.97 | 5.66 | 97 | 1007.0 |
| 20260506155748 | 12 | 46 | 8.0 | 17.7 | 0.00 | 3.05 | 5.66 | 97 | 1006.9 |
| 20260506155300 | 12 | 20 | 9.7 | 17.7 | 0.00 | 3.05 | 5.66 | 97 | 1006.9 |
| 20260506154722 | 12 | 355 | 8.0 | 17.7 | 0.10 | 3.05 | 5.66 | 97 | 1007.1 |
| 20260506154255 | 12 | 347 | 6.4 | 16.1 | 0.30 | 3.05 | 5.66 | 97 | 1007.3 |
| 20260506153727 | 12 | 26 | 8.0 | 16.1 | 0.71 | 3.05 | 5.66 | 97 | 1007.4 |
| 20260506153240 | 12 | 355 | 6.4 | 12.9 | 1.70 | 3.05 | 5.66 | 97 | 1007.4 |
| 20260506152724 | 12 | 17 | 4.8 | 12.9 | 3.00 | 3.05 | 5.66 | 97 | 1007.6 |
| 20260506152238 | 12 | 20 | 6.4 | 14.5 | 3.99 | 3.05 | 5.66 | 97 | 1007.7 |
| 20260506151723 | 12 | 347 | 6.4 | 16.1 | 5.00 | 3.05 | 5.66 | 97 | 1007.6 |
| 20260506151237 | 12 | 340 | 8.0 | 16.1 | 5.31 | 3.05 | 5.66 | 97 | 1007.5 |
| 20260506150746 | 12 | 355 | 8.0 | 14.5 | 5.69 | 3.05 | 5.66 | 97 | 1007.6 |
| 20260506150228 | 12 | 348 | 4.8 | 12.9 | 6.71 | 3.05 | 5.66 | 97 | 1007.7 |
| 20260506145757 | 12 | 5 | 6.4 | 12.9 | 7.01 | 3.05 | 5.66 | 97 | 1007.8 |
| 20260506145248 | 11 | 355 | 4.8 | 17.7 | 7.19 | 3.05 | 5.66 | 96 | 1007.9 |
| 20260506144740 | 11 | 40 | 6.4 | 17.7 | 7.11 | 3.05 | 5.64 | 96 | 1007.8 |
| 20260506144220 | 11 | 28 | 9.7 | 16.1 | 7.01 | 3.02 | 5.59 | 96 | 1008.0 |
| 20260506143733 | 11 | 51 | 9.7 | 16.1 | 7.19 | 2.97 | 5.51 | 96 | 1007.9 |
| 20260506143227 | 11 | 275 | 6.4 | 14.5 | 8.20 | 2.87 | 5.31 | 96 | 1008.1 |
| 20260506142739 | 12 | 9 | 8.0 | 17.7 | 10.01 | 2.74 | 5.05 | 95 | 1008.0 |
| 20260506142236 | 12 | 313 | 8.0 | 25.7 | 11.40 | 2.62 | 4.80 | 96 | 1008.1 |
| 20260506141730 | 12 | 29 | 12.9 | 25.7 | 12.90 | 2.54 | 4.65 | 96 | 1007.9 |
| 20260506141243 | 12 | 5 | 11.3 | 22.5 | 14.81 | 25.30 | 4.60 | 96 | 1007.3 |
| 20260506140722 | 12 | 5 | 9.7 | 22.5 | 15.90 | 24.79 | 4.50 | 96 | 1007.8 |
| 20260506140235 | 12 | 355 | 11.3 | 17.7 | 16.00 | 23.90 | 4.32 | 96 | 1007.9 |
| 20260506135727 | 12 | 78 | 8.0 | 24.1 | 16.10 | 23.60 | 4.24 | 95 | 1007.8 |
| 20260506135240 | 12 | 89 | 14.5 | 24.1 | 16.10 | 23.50 | 4.22 | 95 | 1007.8 |
| 20260506134724 | 12 | 80 | 14.5 | 30.6 | 16.10 | 23.50 | 4.22 | 95 | 1007.8 |
| 20260506134237 | 12 | 86 | 17.7 | 30.6 | 16.00 | 23.39 | 4.19 | 95 | 1007.6 |
| 20260506133732 | 12 | 84 | 9.7 | 14.5 | 15.39 | 22.81 | 4.09 | 93 | 1008.1 |
| 20260506133234 | 13 | 227 | 8.0 | 12.9 | 13.31 | 20.70 | 3.66 | 93 | 1008.6 |
| 20260506132748 | 13 | 282 | 6.4 | 12.9 | 10.31 | 17.70 | 3.05 | 93 | 1008.3 |
| 20260506132235 | 13 | 38 | 4.8 | 19.3 | 7.59 | 15.01 | 2.51 | 93 | 1008.2 |
| 20260506131743 | 14 | 119 | 12.9 | 19.3 | 5.21 | 12.60 | 2.03 | 93 | 1008.0 |
| 20260506131234 | 14 | 59 | 6.4 | 14.5 | 2.79 | 10.21 | 1.55 | 93 | 1008.2 |
| 20260506130743 | 14 | 81 | 6.4 | 14.5 | 1.60 | 8.99 | 1.32 | 93 | 1008.2 |
| 20260506130246 | 15 | 105 | 9.7 | 24.1 | 0.61 | 8.00 | 1.12 | 92 | 1008.0 |
| 20260506125738 | 15 | 103 | 12.9 | 25.7 | 0.10 | 7.59 | 1.02 | 92 | 1008.0 |
| 20260506125232 | 15 | 101 | 8.0 | 22.5 | 0.00 | 7.49 | 0.99 | 91 | 1008.1 |
| 20260506124745 | 15 | 85 | 12.9 | 30.6 | 0.00 | 7.49 | 0.99 | 91 | 1008.0 |
| 20260506124229 | 15 | 143 | 17.7 | 30.6 | 0.00 | 7.49 | 0.99 | 90 | 1007.9 |
| 20260506123722 | 15 | 163 | 8.0 | 25.7 | 0.00 | 7.49 | 0.99 | 90 | 1008.0 |
| 20260506123234 | 15 | 144 | 16.1 | 25.7 | 0.00 | 7.49 | 0.99 | 90 | 1007.9 |
| 20260506122747 | 15 | 128 | 12.9 | 29.0 | 0.00 | 7.49 | 0.99 | 91 | 1007.9 |
| 20260506122258 | 15 | 107 | 11.3 | 29.0 | 0.00 | 7.49 | 0.99 | 90 | 1007.9 |
| 20260506121722 | 15 | 74 | 16.1 | 29.0 | 0.00 | 7.49 | 0.99 | 89 | 1007.9 |
| 20260506121234 | 16 | 113 | 16.1 | 25.7 | 0.00 | 7.49 | 0.99 | 87 | 1007.8 |
| 20260506120723 | 16 | 86 | 8.0 | 30.6 | 0.00 | 7.49 | 0.99 | 86 | 1007.9 |
| 20260506120233 | 16 | 167 | 9.7 | 30.6 | 0.00 | 7.49 | 0.99 | 87 | 1007.9 |
| 20260506115725 | 16 | 126 | 11.3 | 27.4 | 0.00 | 8.10 | 0.99 | 86 | 1008.0 |
| 20260506115225 | 16 | 163 | 14.5 | 27.4 | 0.00 | 8.10 | 0.99 | 86 | 1007.9 |
| 20260506114738 | 16 | 128 | 8.0 | 33.8 | 0.00 | 8.10 | 0.99 | 88 | 1007.8 |
| 20260506114228 | 16 | 94 | 19.3 | 29.0 | 0.00 | 8.10 | 0.99 | 86 | 1007.7 |
| 20260506113741 | 16 | 88 | 17.7 | 33.8 | 0.00 | 8.10 | 0.99 | 89 | 1007.7 |
| 20260506113226 | 16 | 149 | 20.9 | 33.8 | 0.00 | 8.10 | 0.99 | 90 | 1007.9 |
| 20260506112720 | 15 | 97 | 14.5 | 29.0 | 0.00 | 8.10 | 0.99 | 91 | 1007.9 |
| 20260506112225 | 15 | 94 | 19.3 | 29.0 | 0.00 | 8.10 | 0.99 | 91 | 1007.9 |
| 20260506111739 | 14 | 118 | 17.7 | 32.2 | 0.00 | 8.10 | 0.99 | 91 | 1008.0 |
| 20260506111232 | 15 | 124 | 17.7 | 32.2 | 0.00 | 8.10 | 0.99 | 90 | 1008.2 |
| 20260506110740 | 15 | 123 | 19.3 | 29.0 | 0.00 | 8.10 | 0.99 | 90 | 1008.2 |
| 20260506110225 | 15 | 126 | 14.5 | 25.7 | 0.10 | 8.10 | 0.99 | 91 | 1008.2 |
| 20260506105740 | 15 | 134 | 11.3 | 25.7 | 0.10 | 8.71 | 0.99 | 92 | 1008.3 |
| 20260506105230 | 15 | 130 | 12.9 | 33.8 | 0.10 | 8.71 | 0.99 | 92 | 1008.4 |
| 20260506104734 | 14 | 78 | 24.1 | 33.8 | 0.10 | 8.71 | 0.99 | 93 | 1008.3 |
| 20260506104228 | 14 | 90 | 14.5 | 27.4 | 0.10 | 8.71 | 0.99 | 94 | 1008.3 |
| 20260506103741 | 14 | 111 | 16.1 | 25.7 | 0.10 | 8.71 | 0.99 | 95 | 1008.5 |
| 20260506103254 | 14 | 115 | 12.9 | 27.4 | 0.10 | 8.71 | 0.99 | 96 | 1008.5 |
| 20260506102738 | 14 | 126 | 14.5 | 30.6 | 0.10 | 8.71 | 0.99 | 97 | 1008.4 |
| 20260506102232 | 13 | 105 | 17.7 | 30.6 | 0.10 | 8.71 | 0.99 | 97 | 1008.5 |
| 20260506101741 | 13 | 112 | 16.1 | 32.2 | 0.10 | 8.71 | 0.99 | 98 | 1008.5 |
| 20260506101226 | 13 | 109 | 12.9 | 32.2 | 0.10 | 8.71 | 0.99 | 98 | 1008.5 |
| 20260506100735 | 13 | 98 | 17.7 | 30.6 | 0.10 | 8.71 | 0.99 | 98 | 1008.5 |
| 20260506100227 | 13 | 77 | 17.7 | 30.6 | 0.00 | 8.61 | 0.99 | 98 | 1008.4 |
| 20260506095738 | 13 | 148 | 9.7 | 27.4 | 0.00 | 9.09 | 0.99 | 98 | 1008.4 |
| 20260506095223 | 13 | 92 | 14.5 | 25.7 | 0.00 | 9.09 | 0.99 | 98 | 1008.4 |
| 20260506094736 | 13 | 80 | 14.5 | 25.7 | 0.00 | 9.09 | 0.99 | 98 | 1008.5 |
| 20260506094250 | 12 | 108 | 12.9 | 29.0 | 0.00 | 9.09 | 0.99 | 98 | 1008.5 |
| 20260506093722 | 13 | 110 | 14.5 | 29.0 | 0.10 | 9.09 | 0.99 | 98 | 1008.4 |
| 20260506093224 | 12 | 105 | 12.9 | 24.1 | 0.10 | 9.09 | 0.99 | 98 | 1008.5 |
| 20260506092806 | 12 | 122 | 14.5 | 24.1 | 0.41 | 9.09 | 0.99 | 98 | 1008.5 |
| 20260506092228 | 12 | 132 | 11.3 | 30.6 | 0.89 | 9.09 | 0.99 | 98 | 1008.4 |
| 20260506091721 | 12 | 85 | 17.7 | 30.6 | 1.40 | 9.09 | 0.99 | 98 | 1008.4 |
| 20260506091234 | 12 | 116 | 14.5 | 29.0 | 1.60 | 9.09 | 0.99 | 98 | 1008.4 |
| 20260506090740 | 12 | 120 | 9.7 | 27.4 | 1.80 | 9.09 | 0.99 | 98 | 1008.2 |
| 20260506090223 | 12 | 139 | 9.7 | 19.3 | 2.01 | 9.09 | 0.99 | 98 | 1007.9 |
| 20260506085737 | 12 | 69 | 6.4 | 20.9 | 2.11 | 9.50 | 0.99 | 98 | 1008.0 |
| 20260506085230 | 12 | 85 | 8.0 | 20.9 | 2.21 | 9.50 | 0.99 | 98 | 1008.0 |
| 20260506084724 | 12 | 74 | 8.0 | 20.9 | 2.31 | 9.50 | 0.99 | 98 | 1008.0 |
| 20260506084237 | 12 | 113 | 12.9 | 22.5 | 2.39 | 9.50 | 0.99 | 98 | 1008.3 |
| 20260506083811 | 12 | 87 | 12.9 | 24.1 | 2.31 | 9.40 | 0.97 | 98 | 1008.5 |
| 20260506083729 | 12 | 87 | 12.9 | 24.1 | 2.31 | 9.40 | 0.97 | 98 | 1008.5 |
| 20260506083221 | 12 | 113 | 9.7 | 24.1 | 2.31 | 9.30 | 0.94 | 98 | 1008.5 |
| 20260506082734 | 12 | 107 | 11.3 | 20.9 | 1.80 | 8.79 | 0.84 | 98 | 1008.6 |
| 20260506082248 | 12 | 105 | 11.3 | 27.4 | 1.60 | 8.61 | 0.79 | 98 | 1008.5 |
| 20260506081734 | 12 | 162 | 12.9 | 27.4 | 1.19 | 8.10 | 0.71 | 98 | 1008.6 |
| 20260506081247 | 12 | 101 | 11.3 | 27.4 | 1.09 | 7.90 | 0.66 | 98 | 1008.6 |
| 20260506080735 | 12 | 107 | 12.9 | 27.4 | 0.89 | 7.70 | 0.61 | 98 | 1008.7 |
| 20260506080228 | 12 | 146 | 17.7 | 27.4 | 0.71 | 7.49 | 0.58 | 98 | 1008.6 |
| 20260506073223 | 12 | 138 | 11.3 | 30.6 | 0.30 | 7.90 | 0.48 | 98 | 1008.6 |
| 20260506072726 | 12 | 136 | 16.1 | 30.6 | 0.30 | 7.90 | 0.48 | 98 | 1008.5 |
| 20260506072235 | 12 | 117 | 9.7 | 19.3 | 0.30 | 7.90 | 0.48 | 98 | 1008.5 |
| 20260506071730 | 12 | 108 | 12.9 | 27.4 | 0.20 | 7.80 | 0.46 | 98 | 1008.5 |
| 20260506071242 | 12 | 84 | 14.5 | 29.0 | 0.10 | 7.70 | 0.43 | 98 | 1008.6 |
| 20260506070748 | 12 | 129 | 11.3 | 22.5 | 0.10 | 7.70 | 0.43 | 98 | 1008.7 |
| 20260506070241 | 12 | 106 | 9.7 | 19.3 | 0.10 | 7.70 | 0.43 | 98 | 1008.6 |
| 20260506062230 | 12 | 104 | 12.9 | 22.5 | 0.20 | 9.91 | 0.43 | 98 | 1008.8 |
| 20260506061723 | 12 | 130 | 8.0 | 17.7 | 0.20 | 9.91 | 0.43 | 98 | 1008.9 |
| 20260506061237 | 12 | 153 | 8.0 | 17.7 | 0.30 | 9.91 | 0.43 | 98 | 1008.9 |
| 20260506060745 | 12 | 101 | 8.0 | 17.7 | 0.30 | 9.91 | 0.43 | 98 | 1008.9 |
| 20260506060227 | 12 | 101 | 9.7 | 22.5 | 0.30 | 9.91 | 0.43 | 98 | 1008.7 |
| 20260506051246 | 12 | 76 | 11.3 | 19.3 | 0.41 | 9.91 | 0.36 | 98 | 1009.0 |
| 20260506050754 | 12 | 115 | 11.3 | 19.3 | 0.41 | 9.91 | 0.36 | 98 | 1009.1 |
| 20260506050227 | 12 | 115 | 9.7 | 19.3 | 0.41 | 9.91 | 0.36 | 98 | 1009.3 |
| 20260506044738 | 12 | 129 | 6.4 | 14.5 | 0.41 | 9.91 | 0.36 | 98 | 1009.3 |
| 20260506044249 | 12 | 98 | 3.2 | 14.5 | 0.30 | 9.80 | 0.33 | 98 | 1009.4 |
| 20260506043732 | 12 | 133 | 6.4 | 16.1 | 0.30 | 9.80 | 0.33 | 98 | 1009.5 |
| 20260506043222 | 12 | 132 | 8.0 | 19.3 | 0.30 | 9.80 | 0.33 | 98 | 1009.5 |
| 20260506042734 | 12 | 134 | 6.4 | 19.3 | 0.20 | 9.70 | 0.33 | 98 | 1009.4 |
| 20260506042244 | 12 | 128 | 4.8 | 14.5 | 0.20 | 9.60 | 0.30 | 98 | 1009.5 |
| 20260506041728 | 12 | 121 | 8.0 | 14.5 | 0.20 | 9.60 | 0.30 | 98 | 1009.4 |
| 20260506041222 | 12 | 105 | 4.8 | 12.9 | 0.20 | 9.50 | 0.28 | 98 | 1009.7 |
| 20260506040730 | 12 | 111 | 6.4 | 16.1 | 0.30 | 9.50 | 0.28 | 98 | 1009.6 |
| 20260506040244 | 12 | 128 | 8.0 | 16.1 | 0.30 | 9.50 | 0.28 | 98 | 1009.6 |
| 20260506035729 | 12 | 139 | 8.0 | 16.1 | 0.30 | 9.50 | 0.28 | 98 | 1009.6 |
| 20260506035220 | 12 | 107 | 6.4 | 16.1 | 0.30 | 9.50 | 0.28 | 98 | 1009.6 |
| 20260506034733 | 12 | 136 | 4.8 | 19.3 | 0.30 | 9.50 | 0.28 | 98 | 1009.6 |
| 20260506034230 | 12 | 101 | 8.0 | 12.9 | 0.41 | 9.50 | 0.28 | 98 | 1009.5 |
| 20260506033724 | 12 | 175 | 6.4 | 14.5 | 0.41 | 9.50 | 0.28 | 98 | 1009.6 |
| 20260506033238 | 12 | 112 | 4.8 | 14.5 | 0.51 | 9.50 | 0.28 | 98 | 1009.5 |
| 20260506032722 | 12 | 119 | 4.8 | 11.3 | 0.51 | 9.50 | 0.28 | 98 | 1009.6 |
| 20260506032234 | 12 | 142 | 6.4 | 14.5 | 0.41 | 9.40 | 0.25 | 98 | 1009.5 |
| 20260506031728 | 12 | 105 | 8.0 | 14.5 | 0.41 | 9.40 | 0.25 | 98 | 1009.5 |
| 20260506031232 | 12 | 134 | 8.0 | 14.5 | 0.30 | 9.30 | 0.23 | 98 | 1009.5 |
| 20260506030721 | 12 | 136 | 6.4 | 12.9 | 0.20 | 9.19 | 0.23 | 98 | 1009.7 |
| 20260506030233 | 12 | 107 | 6.4 | 11.3 | 0.20 | 9.19 | 0.23 | 98 | 1009.9 |
| 20260506025726 | 12 | 179 | 4.8 | 12.9 | 0.20 | 9.19 | 0.23 | 98 | 1010.0 |
| 20260506025300 | 12 | 130 | 6.4 | 12.9 | 0.20 | 9.19 | 0.23 | 98 | 1010.3 |
| 20260506024752 | 12 | 132 | 3.2 | 11.3 | 0.20 | 9.19 | 0.23 | 98 | 1010.3 |
| 20260506024229 | 12 | 133 | 4.8 | 12.9 | 0.10 | 9.09 | 0.20 | 98 | 1010.3 |
| 20260506023723 | 12 | 111 | 6.4 | 12.9 | 0.10 | 9.09 | 0.20 | 98 | 1010.4 |
| 20260506023225 | 12 | 137 | 6.4 | 12.9 | 0.00 | 8.99 | 0.18 | 98 | 1010.5 |
| 20260506022738 | 12 | 98 | 4.8 | 12.9 | 0.00 | 8.99 | 0.18 | 98 | 1010.5 |
| 20260506022248 | 12 | 93 | 4.8 | 12.9 | 0.00 | 8.99 | 0.18 | 98 | 1010.5 |
| 20260506021721 | 12 | 104 | 6.4 | 14.5 | 0.10 | 8.99 | 0.18 | 98 | 1010.5 |
| 20260506021224 | 12 | 119 | 4.8 | 14.5 | 0.20 | 8.99 | 0.18 | 98 | 1010.6 |
| 20260506020734 | 12 | 132 | 6.4 | 12.9 | 0.51 | 8.99 | 0.18 | 98 | 1010.6 |
| 20260506020305 | 12 | 136 | 6.4 | 16.1 | 0.61 | 8.99 | 0.18 | 98 | 1010.6 |
| 20260506015726 | 12 | 135 | 6.4 | 16.1 | 0.89 | 8.99 | 0.18 | 98 | 1010.6 |
| 20260506015220 | 12 | 116 | 4.8 | 12.9 | 0.89 | 8.99 | 0.18 | 98 | 1010.7 |
| 20260506014726 | 12 | 123 | 4.8 | 12.9 | 0.89 | 8.99 | 0.18 | 98 | 1010.6 |
| 20260506014220 | 12 | 111 | 4.8 | 11.3 | 0.89 | 8.99 | 0.18 | 98 | 1010.6 |
| 20260506013732 | 12 | 117 | 6.4 | 11.3 | 0.89 | 8.99 | 0.18 | 98 | 1010.6 |